Location: Fours
(44.3167°N, 6.7000°E)
Time: 20:44:12
(UTC+00:00)

ATLAS 3B R/B - Pass Details

Date: 16 October 2021
Orbit: 989 x 1206 km, 63.8° (Epoch: 25 November)

Event Time Altitude Azimuth Distance (km) Brightness Sun altitude
Rises 18:25:25 0° 239° (WSW) 3,711 6.4 -18.3°
Reaches altitude 10° 18:28:05 10° 245° (WSW) 2,780 5.8 -18.8°
Maximum altitude 18:34:18 44° 317° (NW) 1,393 3.6 -19.9°
Drops below altitude 10° 18:40:50 10° 29° (NNE) 2,917 4.8 -21.1°
Enters shadow 18:42:52 - 34° (NE) 3,613 5.2 -21.4°
